Time,TemperatureF,DewpointF,PressureIn,WindDirection,WindDirectionDegrees,WindSpeedMPH,WindSpeedGustMPH,Humidity,HourlyPrecipIn,Conditions,Clouds,dailyrainin,SoftwareType,DateUTC
2013-06-01 00:00:00,74.8,71.7,28.97,South,172,0.0,0.0,90,0.00,,---,0.00,VWS V14.00,2013-06-01 05:00:00,
2013-06-01 00:05:00,74.6,71.5,28.97,South,172,0.0,0.0,90,0.00,,---,0.00,VWS V14.00,2013-06-01 05:05:00,
2013-06-01 00:08:00,74.6,71.5,28.97,South,173,0.0,0.0,90,0.00,,---,0.00,VWS V14.00,2013-06-01 05:08:00,
2013-06-01 00:14:00,74.6,71.8,28.97,South,172,0.0,0.0,91,0.00,,---,0.00,VWS V14.00,2013-06-01 05:14:00,
2013-06-01 00:15:00,74.6,71.8,28.97,South,175,0.0,0.0,91,0.00,,---,0.00,VWS V14.00,2013-06-01 05:15:00,
2013-06-01 00:17:00,74.6,71.8,28.97,South,176,0.0,0.0,91,0.00,,---,0.00,VWS V14.00,2013-06-01 05:17:00,
2013-06-01 00:20:00,74.6,71.8,28.97,South,176,0.0,0.0,91,0.00,,---,0.00,VWS V14.00,2013-06-01 05:20:00,
2013-06-01 00:23:00,74.5,71.7,28.97,South,176,0.0,0.0,91,0.00,,---,0.00,VWS V14.00,2013-06-01 05:23:00,
2013-06-01 00:26:00,74.5,71.7,28.97,South,176,0.0,0.0,91,0.00,,---,0.00,VWS V14.00,2013-06-01 05:26:00,
2013-06-01 00:29:00,74.5,71.7,28.97,South,176,0.0,0.0,91,0.00,,---,0.00,VWS V14.00,2013-06-01 05:29:00,
2013-06-01 00:32:00,74.3,71.5,28.97,South,176,0.0,0.0,91,0.00,,---,0.00,VWS V14.00,2013-06-01 05:32:00,
2013-06-01 00:35:00,74.3,71.5,28.97,South,176,0.0,0.0,91,0.00,,---,0.00,VWS V14.00,2013-06-01 05:35:00,
2013-06-01 00:38:00,74.3,71.8,28.97,South,176,0.0,0.0,92,0.00,,---,0.00,VWS V14.00,2013-06-01 05:38:00,
2013-06-01 00:41:00,74.1,71.6,28.97,South,176,0.0,0.0,92,0.00,,---,0.00,VWS V14.00,2013-06-01 05:41:00,
2013-06-01 00:44:00,74.1,71.6,28.97,South,176,0.0,0.0,92,0.00,,---,0.00,VWS V14.00,2013-06-01 05:44:00,
2013-06-01 00:45:00,74.1,71.6,28.97,South,176,0.0,0.0,92,0.00,,---,0.00,VWS V14.00,2013-06-01 05:45:00,
2013-06-01 00:47:00,74.1,71.6,28.97,South,176,0.0,0.0,92,0.00,,---,0.00,VWS V14.00,2013-06-01 05:47:00,
2013-06-01 00:50:00,74.1,71.6,28.97,South,180,0.0,0.0,92,0.00,,---,0.00,VWS V14.00,2013-06-01 05:50:00,
2013-06-01 00:53:00,74.1,71.6,28.97,South,181,0.0,0.0,92,0.00,,---,0.00,VWS V14.00,2013-06-01 05:53:00,
2013-06-01 00:56:00,74.1,71.6,28.97,South,181,0.0,0.0,92,0.00,,---,0.00,VWS V14.00,2013-06-01 05:56:00,
2013-06-01 00:59:00,74.1,71.6,28.97,SSE,156,0.0,0.0,92,0.00,,---,0.00,VWS V14.00,2013-06-01 05:59:00,
2013-06-01 01:02:00,74.1,71.6,28.97,South,185,0.0,0.0,92,0.00,,---,0.00,VWS V14.00,2013-06-01 06:02:00,
2013-06-01 01:05:00,74.1,71.6,28.97,South,174,0.0,0.0,92,0.00,,---,0.00,VWS V14.00,2013-06-01 06:05:00,
2013-06-01 01:08:00,73.9,71.4,28.94,SSE,151,0.0,0.0,92,0.00,,---,0.00,VWS V14.00,2013-06-01 06:08:00,
2013-06-01 01:11:00,73.9,71.4,28.94,SE,142,0.0,0.0,92,0.00,,---,0.00,VWS V14.00,2013-06-01 06:11:00,
2013-06-01 01:14:00,73.9,71.8,28.94,South,171,0.0,0.0,93,0.00,,---,0.00,VWS V14.00,2013-06-01 06:14:00,
2013-06-01 01:17:00,73.9,71.8,28.94,SE,144,0.0,0.0,93,0.00,,---,0.00,VWS V14.00,2013-06-01 06:17:00,
2013-06-01 01:20:00,73.9,71.8,28.94,SSE,154,0.0,0.0,93,0.00,,---,0.00,VWS V14.00,2013-06-01 06:20:00,
2013-06-01 01:23:00,73.9,71.8,28.94,SSE,152,0.0,0.0,93,0.00,,---,0.00,VWS V14.00,2013-06-01 06:23:00,
2013-06-01 01:26:00,74.1,71.9,28.94,SSE,161,0.0,0.0,93,0.00,,---,0.00,VWS V14.00,2013-06-01 06:26:00,
2013-06-01 01:29:00,74.1,71.9,28.94,South,186,0.0,0.0,93,0.00,,---,0.00,VWS V14.00,2013-06-01 06:29:00,
2013-06-01 01:30:00,74.1,71.9,28.94,SE,142,0.0,0.0,93,0.00,,---,0.00,VWS V14.00,2013-06-01 06:30:00,
2013-06-01 01:35:00,74.1,71.9,28.94,SSE,155,0.0,0.0,93,0.00,,---,0.00,VWS V14.00,2013-06-01 06:35:00,
2013-06-01 01:41:00,74.1,71.9,28.91,SE,140,0.0,0.0,93,0.00,,---,0.00,VWS V14.00,2013-06-01 06:41:00,
2013-06-01 01:45:00,74.1,71.9,28.91,South,180,0.0,0.0,93,0.00,,---,0.00,VWS V14.00,2013-06-01 06:45:00,
2013-06-01 01:47:00,74.1,71.9,28.91,SSE,151,0.0,0.0,93,0.00,,---,0.00,VWS V14.00,2013-06-01 06:47:00,
2013-06-01 01:53:00,74.3,72.1,28.91,SSE,159,0.0,0.0,93,0.00,,---,0.00,VWS V14.00,2013-06-01 06:53:00,
2013-06-01 01:56:00,74.3,72.1,28.91,SSE,160,0.0,0.0,93,0.00,,---,0.00,VWS V14.00,2013-06-01 06:56:00,
2013-06-01 01:59:00,74.3,72.1,28.91,SSE,159,0.0,0.0,93,0.00,,---,0.00,VWS V14.00,2013-06-01 06:59:00,
2013-06-01 02:02:00,74.3,72.1,28.91,SW,224,0.0,0.0,93,0.00,,---,0.00,VWS V14.00,2013-06-01 07:02:00,
2013-06-01 02:05:00,74.5,72.3,28.91,SSE,166,0.0,0.0,93,0.00,,---,0.00,VWS V14.00,2013-06-01 07:05:00,
2013-06-01 02:08:00,74.5,72.3,28.91,SSE,168,0.0,0.0,93,0.00,,---,0.00,VWS V14.00,2013-06-01 07:08:00,
2013-06-01 02:11:00,74.6,72.5,28.91,SE,139,0.0,0.0,93,0.00,,---,0.00,VWS V14.00,2013-06-01 07:11:00,
2013-06-01 02:14:00,74.6,72.5,28.91,South,171,0.0,0.0,93,0.00,,---,0.00,VWS V14.00,2013-06-01 07:14:00,
2013-06-01 02:15:00,74.6,72.5,28.91,South,178,0.0,0.0,93,0.00,,---,0.00,VWS V14.00,2013-06-01 07:15:00,
2013-06-01 02:20:00,74.6,72.2,28.91,South,178,0.0,0.0,92,0.00,,---,0.00,VWS V14.00,2013-06-01 07:20:00,
2013-06-01 02:23:00,74.8,72.3,28.91,South,170,0.0,0.0,92,0.00,,---,0.00,VWS V14.00,2013-06-01 07:23:00,
2013-06-01 02:26:00,74.8,72.3,28.91,SE,140,0.0,0.0,92,0.00,,---,0.00,VWS V14.00,2013-06-01 07:26:00,
2013-06-01 02:29:00,74.8,72.3,28.91,SSE,151,0.0,0.0,92,0.00,,---,0.00,VWS V14.00,2013-06-01 07:29:00,
2013-06-01 02:30:00,74.8,72.3,28.91,SSE,167,0.0,0.0,92,0.00,,---,0.00,VWS V14.00,2013-06-01 07:30:00,
2013-06-01 02:32:00,75.0,72.2,28.91,SSE,161,0.0,0.0,91,0.00,,---,0.00,VWS V14.00,2013-06-01 07:32:00,
2013-06-01 02:35:00,75.0,72.2,28.91,SSE,159,0.0,0.0,91,0.00,,---,0.00,VWS V14.00,2013-06-01 07:35:00,
2013-06-01 02:38:00,75.2,72.4,28.91,SSE,168,0.0,0.0,91,0.00,,---,0.00,VWS V14.00,2013-06-01 07:38:00,
2013-06-01 02:41:00,75.2,72.4,28.91,South,181,0.0,0.0,91,0.00,,---,0.00,VWS V14.00,2013-06-01 07:41:00,
2013-06-01 02:44:00,75.2,72.4,28.91,SSE,168,0.0,0.0,91,0.00,,---,0.00,VWS V14.00,2013-06-01 07:44:00,
2013-06-01 02:45:00,75.2,72.4,28.91,South,174,0.0,0.0,91,0.00,,---,0.00,VWS V14.00,2013-06-01 07:45:00,
2013-06-01 02:47:00,75.2,72.4,28.91,SSE,164,0.0,0.0,91,0.00,,---,0.00,VWS V14.00,2013-06-01 07:47:00,
2013-06-01 02:50:00,75.4,72.6,28.91,SE,130,0.0,0.0,91,0.00,,---,0.00,VWS V14.00,2013-06-01 07:50:00,
2013-06-01 02:53:00,75.4,72.6,28.91,SSE,152,0.0,0.0,91,0.00,,---,0.00,VWS V14.00,2013-06-01 07:53:00,
2013-06-01 02:59:00,75.4,72.2,28.91,South,187,0.0,0.0,90,0.00,,---,0.00,VWS V14.00,2013-06-01 07:59:00,
2013-06-01 03:00:00,75.4,72.2,28.91,South,171,0.0,0.0,90,0.00,,---,0.00,VWS V14.00,2013-06-01 08:00:00,
2013-06-01 03:02:00,75.4,72.2,28.91,South,178,0.0,0.0,90,0.00,,---,0.00,VWS V14.00,2013-06-01 08:02:00,
2013-06-01 03:05:00,75.4,72.2,28.91,SE,141,0.0,0.0,90,0.00,,---,0.00,VWS V14.00,2013-06-01 08:05:00,
2013-06-01 03:08:00,75.5,72.4,28.91,SSE,152,0.0,0.0,90,0.00,,---,0.00,VWS V14.00,2013-06-01 08:08:00,
2013-06-01 03:11:00,75.5,72.4,28.91,South,169,0.0,0.0,90,0.00,,---,0.00,VWS V14.00,2013-06-01 08:11:00,
2013-06-01 03:14:00,75.5,72.4,28.91,SSE,152,0.0,0.0,90,0.00,,---,0.00,VWS V14.00,2013-06-01 08:14:00,
2013-06-01 03:15:00,75.5,72.4,28.91,SSE,151,0.0,0.0,90,0.00,,---,0.00,VWS V14.00,2013-06-01 08:15:00,
2013-06-01 03:20:00,75.5,72.4,28.91,South,174,0.0,0.0,90,0.00,,---,0.00,VWS V14.00,2013-06-01 08:20:00,
2013-06-01 03:23:00,75.5,72.4,28.91,South,180,0.0,0.0,90,0.00,,---,0.00,VWS V14.00,2013-06-01 08:23:00,
2013-06-01 03:26:00,75.4,72.2,28.91,SSE,149,0.0,0.0,90,0.00,,---,0.00,VWS V14.00,2013-06-01 08:26:00,
2013-06-01 03:32:00,75.2,72.4,28.91,SSE,159,0.0,0.0,91,0.00,,---,0.00,VWS V14.00,2013-06-01 08:32:00,
2013-06-01 03:35:00,75.2,72.4,28.91,SSE,151,0.0,0.0,91,0.00,,---,0.00,VWS V14.00,2013-06-01 08:35:00,
2013-06-01 03:38:00,75.2,72.1,28.94,WSW,245,0.0,0.0,90,0.00,,---,0.00,VWS V14.00,2013-06-01 08:38:00,
2013-06-01 03:41:00,74.8,71.0,28.94,WSW,254,0.0,0.0,88,0.00,,---,0.00,VWS V14.00,2013-06-01 08:41:00,
2013-06-01 03:44:00,74.6,70.2,28.94,North,353,0.0,0.0,86,0.00,,---,0.00,VWS V14.00,2013-06-01 08:44:00,
2013-06-01 03:50:00,73.7,67.2,28.94,North,353,0.0,0.0,80,0.00,,---,0.00,VWS V14.00,2013-06-01 08:50:00,
2013-06-01 03:53:00,73.6,66.7,28.94,SSE,167,0.0,0.0,79,0.00,,---,0.00,VWS V14.00,2013-06-01 08:53:00,
2013-06-01 03:56:00,73.6,66.7,28.94,ESE,118,0.0,0.0,79,0.00,,---,0.00,VWS V14.00,2013-06-01 08:56:00,
2013-06-01 04:00:00,73.6,66.7,28.94,SE,137,0.0,0.0,79,0.00,,---,0.00,VWS V14.00,2013-06-01 09:00:00,
2013-06-01 04:02:00,72.7,66.1,28.94,SE,133,0.0,0.0,80,0.00,,---,0.00,VWS V14.00,2013-06-01 09:02:00,
2013-06-01 04:05:00,72.5,66.0,28.94,ESE,104,0.0,0.0,80,0.00,,---,0.00,VWS V14.00,2013-06-01 09:05:00,
2013-06-01 04:11:00,71.9,65.4,28.97,South,187,0.0,0.0,80,0.00,,---,0.00,VWS V14.00,2013-06-01 09:11:00,
2013-06-01 04:14:00,71.4,64.9,28.97,South,188,0.0,0.0,80,0.00,,---,0.00,VWS V14.00,2013-06-01 09:14:00,
2013-06-01 04:15:00,71.4,64.9,28.97,South,188,0.0,0.0,80,0.00,,---,0.00,VWS V14.00,2013-06-01 09:15:00,
2013-06-01 04:17:00,71.0,64.9,28.97,North,11,0.0,0.0,81,0.00,,---,0.00,VWS V14.00,2013-06-01 09:17:00,
2013-06-01 04:23:00,70.5,64.4,28.97,North,9,0.0,0.0,81,0.00,,---,0.00,VWS V14.00,2013-06-01 09:23:00,
2013-06-01 04:29:00,70.1,64.4,28.97,SSW,199,0.0,0.0,82,0.00,,---,0.00,VWS V14.00,2013-06-01 09:29:00,
2013-06-01 04:30:00,70.1,64.4,28.97,SSW,199,0.0,0.0,82,0.00,,---,0.00,VWS V14.00,2013-06-01 09:30:00,
2013-06-01 04:32:00,70.1,64.7,28.97,SSW,199,0.0,0.0,83,0.00,,---,0.00,VWS V14.00,2013-06-01 09:32:00,
2013-06-01 04:35:00,70.0,64.9,28.97,SSW,199,0.0,0.0,84,0.00,,---,0.00,VWS V14.00,2013-06-01 09:35:00,
2013-06-01 04:38:00,70.0,64.9,29.00,South,184,0.0,0.0,84,0.04,,---,0.04,VWS V14.00,2013-06-01 09:38:00,
2013-06-01 04:41:00,69.8,65.1,29.00,SSE,155,0.0,0.0,85,0.04,,---,0.04,VWS V14.00,2013-06-01 09:41:00,
2013-06-01 04:44:00,69.6,65.2,29.00,SE,146,0.0,0.0,86,0.04,,---,0.04,VWS V14.00,2013-06-01 09:44:00,
2013-06-01 04:45:00,69.6,65.2,29.00,SE,146,0.0,0.0,86,0.04,,---,0.04,VWS V14.00,2013-06-01 09:45:00,
2013-06-01 04:47:00,69.4,65.1,29.00,South,182,0.0,0.0,86,0.04,,---,0.04,VWS V14.00,2013-06-01 09:47:00,
2013-06-01 04:50:00,69.2,64.9,29.00,South,182,0.0,0.0,86,0.04,,---,0.04,VWS V14.00,2013-06-01 09:50:00,
2013-06-01 04:54:00,69.2,64.9,28.97,South,182,0.0,0.0,86,0.04,,---,0.04,VWS V14.00,2013-06-01 09:54:00,
2013-06-01 05:00:00,68.9,64.9,28.97,North,350,0.0,0.0,87,0.04,,---,0.04,VWS V14.00,2013-06-01 10:00:00,
2013-06-01 05:06:00,68.9,64.5,28.97,South,173,0.0,0.0,86,0.04,,---,0.04,VWS V14.00,2013-06-01 10:06:00,
2013-06-01 05:09:00,68.7,64.7,28.97,SSE,167,0.0,0.0,87,0.04,,---,0.04,VWS V14.00,2013-06-01 10:09:00,
2013-06-01 05:12:00,68.7,64.7,28.97,South,180,0.0,0.0,87,0.04,,---,0.04,VWS V14.00,2013-06-01 10:12:00,
2013-06-01 05:15:00,68.5,64.8,28.97,SE,146,0.0,0.0,88,0.08,,---,0.08,VWS V14.00,2013-06-01 10:15:00,
2013-06-01 05:18:00,68.5,64.8,28.97,South,176,0.0,0.0,88,0.08,,---,0.08,VWS V14.00,2013-06-01 10:18:00,
2013-06-01 05:21:00,68.5,64.8,28.97,South,170,0.0,0.0,88,0.08,,---,0.08,VWS V14.00,2013-06-01 10:21:00,
2013-06-01 05:27:00,68.5,64.5,28.97,SSW,195,0.0,0.0,87,0.08,,---,0.08,VWS V14.00,2013-06-01 10:27:00,
2013-06-01 05:30:00,68.3,64.7,28.97,South,190,0.0,0.0,88,0.08,,---,0.08,VWS V14.00,2013-06-01 10:30:00,
2013-06-01 05:33:00,68.3,64.3,28.97,South,190,0.0,0.0,87,0.08,,---,0.08,VWS V14.00,2013-06-01 10:33:00,
2013-06-01 05:36:00,68.3,64.3,28.97,South,186,0.0,0.0,87,0.08,,---,0.08,VWS V14.00,2013-06-01 10:36:00,
2013-06-01 05:39:00,68.2,64.5,28.97,South,179,0.0,0.0,88,0.08,,---,0.08,VWS V14.00,2013-06-01 10:39:00,
2013-06-01 05:45:00,68.2,64.8,28.97,SSE,153,0.0,0.0,89,0.12,,---,0.12,VWS V14.00,2013-06-01 10:45:00,
2013-06-01 05:51:00,68.3,65.0,28.97,SSE,162,0.0,0.0,89,0.08,,---,0.12,VWS V14.00,2013-06-01 10:51:00,
2013-06-01 05:54:00,68.3,65.0,28.97,SSE,162,0.0,0.0,89,0.08,,---,0.12,VWS V14.00,2013-06-01 10:54:00,
2013-06-01 05:57:00,68.3,65.0,28.97,SSE,168,0.0,0.0,89,0.08,,---,0.12,VWS V14.00,2013-06-01 10:57:00,
2013-06-01 06:00:00,68.3,65.0,28.97,SSE,160,0.0,0.0,89,0.08,,---,0.12,VWS V14.00,2013-06-01 11:00:00,
2013-06-01 06:06:00,68.2,64.8,28.97,SSW,194,0.0,0.0,89,0.08,,---,0.12,VWS V14.00,2013-06-01 11:06:00,
2013-06-01 06:09:00,68.0,64.6,29.00,South,185,0.0,0.0,89,0.08,,---,0.12,VWS V14.00,2013-06-01 11:09:00,
2013-06-01 06:12:00,68.0,64.6,29.00,South,176,0.0,0.0,89,0.08,,---,0.12,VWS V14.00,2013-06-01 11:12:00,
2013-06-01 06:15:00,68.0,64.6,29.00,South,176,0.0,0.0,89,0.04,,---,0.12,VWS V14.00,2013-06-01 11:15:00,
2013-06-01 06:18:00,67.8,64.4,29.00,South,176,0.0,0.0,89,0.04,,---,0.12,VWS V14.00,2013-06-01 11:18:00,
2013-06-01 06:21:00,67.8,64.4,29.00,ENE,78,0.0,0.0,89,0.04,,---,0.12,VWS V14.00,2013-06-01 11:21:00,
2013-06-01 06:27:00,67.6,64.6,29.00,ENE,78,0.0,0.0,90,0.04,,---,0.12,VWS V14.00,2013-06-01 11:27:00,
2013-06-01 06:30:00,67.6,64.6,29.00,ENE,78,0.0,0.0,90,0.08,,---,0.16,VWS V14.00,2013-06-01 11:30:00,
2013-06-01 06:33:00,67.6,64.6,29.00,ENE,78,0.0,0.0,90,0.08,,---,0.16,VWS V14.00,2013-06-01 11:33:00,
2013-06-01 06:36:00,67.6,64.6,29.00,ENE,77,0.0,0.0,90,0.08,,---,0.16,VWS V14.00,2013-06-01 11:36:00,
2013-06-01 06:39:00,67.4,64.4,29.03,East,80,0.0,0.0,90,0.08,,---,0.16,VWS V14.00,2013-06-01 11:39:00,
2013-06-01 06:45:00,67.4,64.7,29.03,East,80,0.0,0.0,91,0.12,,---,0.20,VWS V14.00,2013-06-01 11:45:00,
2013-06-01 06:51:00,67.4,64.7,29.03,SSE,162,0.0,0.0,91,0.08,,---,0.20,VWS V14.00,2013-06-01 11:51:00,
2013-06-01 06:54:00,67.4,64.7,29.03,SSE,162,0.0,0.0,91,0.08,,---,0.20,VWS V14.00,2013-06-01 11:54:00,
2013-06-01 07:00:00,67.4,64.7,29.03,SSE,162,0.0,0.0,91,0.12,,---,0.24,VWS V14.00,2013-06-01 12:00:00,
2013-06-01 07:03:00,67.4,64.7,29.03,SSE,162,0.0,0.0,91,0.12,,---,0.24,VWS V14.00,2013-06-01 12:03:00,
2013-06-01 07:09:00,67.4,64.7,29.06,SSE,162,0.0,0.0,91,0.16,,---,0.28,VWS V14.00,2013-06-01 12:09:00,
2013-06-01 07:15:00,67.3,64.6,29.06,SSE,162,0.0,0.0,91,0.16,,---,0.28,VWS V14.00,2013-06-01 12:15:00,
2013-06-01 07:18:00,67.3,64.6,29.06,SSE,162,0.0,0.0,91,0.16,,---,0.28,VWS V14.00,2013-06-01 12:18:00,
2013-06-01 07:21:00,67.3,64.6,29.06,SSE,162,0.0,0.0,91,0.16,,---,0.28,VWS V14.00,2013-06-01 12:21:00,
2013-06-01 07:24:00,67.3,64.9,29.06,SSE,162,0.0,0.0,92,0.16,,---,0.28,VWS V14.00,2013-06-01 12:24:00,
2013-06-01 07:27:00,67.3,64.9,29.06,North,0,0.0,0.0,92,0.20,,---,0.31,VWS V14.00,2013-06-01 12:27:00,
2013-06-01 07:30:00,67.1,64.7,29.06,NNE,31,0.0,0.0,92,0.28,,---,0.39,VWS V14.00,2013-06-01 12:30:00,
2013-06-01 07:33:00,67.3,64.9,29.06,NNE,26,0.0,0.0,92,0.24,,---,0.39,VWS V14.00,2013-06-01 12:33:00,
2013-06-01 07:36:00,67.3,64.9,29.06,SE,143,0.0,0.0,92,0.28,,---,0.43,VWS V14.00,2013-06-01 12:36:00,
2013-06-01 07:42:00,67.3,64.9,29.03,SE,143,0.0,0.0,92,0.28,,---,0.43,VWS V14.00,2013-06-01 12:42:00,
2013-06-01 07:45:00,67.3,64.9,29.03,SE,143,0.0,0.0,92,0.28,,---,0.43,VWS V14.00,2013-06-01 12:45:00,
2013-06-01 07:51:00,67.3,64.9,29.03,South,183,0.0,0.0,92,0.24,,---,0.43,VWS V14.00,2013-06-01 12:51:00,
2013-06-01 07:54:00,67.1,64.7,29.03,South,177,0.0,0.0,92,0.24,,---,0.43,VWS V14.00,2013-06-01 12:54:00,
2013-06-01 07:57:00,67.1,64.7,29.03,SSE,155,0.0,0.0,92,0.24,,---,0.43,VWS V14.00,2013-06-01 12:57:00,
2013-06-01 08:00:00,67.3,64.9,29.03,SSE,166,0.0,0.0,92,0.20,,---,0.43,VWS V14.00,2013-06-01 13:00:00,
2013-06-01 08:06:00,67.3,64.9,29.03,SSE,160,0.0,0.0,92,0.20,,---,0.43,VWS V14.00,2013-06-01 13:06:00,
2013-06-01 08:12:00,67.4,65.0,29.03,SSE,164,0.0,0.0,92,0.24,,---,0.47,VWS V14.00,2013-06-01 13:12:00,
2013-06-01 08:15:00,67.3,64.9,29.03,SSE,167,0.0,0.0,92,0.24,,---,0.47,VWS V14.00,2013-06-01 13:15:00,
2013-06-01 08:21:00,67.4,65.0,29.03,SSE,166,0.0,0.0,92,0.20,,---,0.47,VWS V14.00,2013-06-01 13:21:00,
2013-06-01 08:24:00,67.4,65.0,29.00,SSE,159,0.0,0.0,92,0.20,,---,0.47,VWS V14.00,2013-06-01 13:24:00,
2013-06-01 08:27:00,67.4,65.0,29.00,SSE,155,0.0,0.0,92,0.20,,---,0.47,VWS V14.00,2013-06-01 13:27:00,
2013-06-01 08:30:00,67.3,64.9,29.00,SSE,147,0.0,0.0,92,0.20,,---,0.47,VWS V14.00,2013-06-01 13:30:00,
2013-06-01 08:33:00,67.3,64.6,29.00,SSE,155,0.0,0.0,91,0.12,,---,0.51,VWS V14.00,2013-06-01 13:33:00,
2013-06-01 08:36:00,67.1,64.7,29.00,South,172,0.0,0.0,92,0.12,,---,0.51,VWS V14.00,2013-06-01 13:36:00,
2013-06-01 08:39:00,67.1,64.7,29.00,SSE,164,0.0,0.0,92,0.12,,---,0.51,VWS V14.00,2013-06-01 13:39:00,
2013-06-01 08:45:00,66.9,64.5,29.00,SSE,153,0.0,0.0,92,0.12,,---,0.51,VWS V14.00,2013-06-01 13:45:00,
2013-06-01 08:48:00,66.7,64.3,29.00,South,177,0.0,0.0,92,0.08,,---,0.51,VWS V14.00,2013-06-01 13:48:00,
2013-06-01 08:51:00,66.7,64.6,29.00,South,180,0.0,0.0,93,0.08,,---,0.51,VWS V14.00,2013-06-01 13:51:00,
2013-06-01 08:54:00,66.5,64.5,28.97,SE,138,0.0,0.0,93,0.08,,---,0.51,VWS V14.00,2013-06-01 13:54:00,
2013-06-01 08:57:00,66.5,64.5,28.97,SSE,158,0.0,0.0,93,0.12,,---,0.55,VWS V14.00,2013-06-01 13:57:00,
2013-06-01 09:00:00,66.5,64.5,28.97,South,173,0.0,0.0,93,0.12,,---,0.55,VWS V14.00,2013-06-01 14:00:00,
2013-06-01 09:03:00,66.4,64.3,28.97,SSE,164,0.0,0.0,93,0.12,,---,0.55,VWS V14.00,2013-06-01 14:03:00,
2013-06-01 09:06:00,66.4,64.3,28.97,South,180,0.0,0.0,93,0.12,,---,0.55,VWS V14.00,2013-06-01 14:06:00,
2013-06-01 09:09:00,66.4,64.3,28.97,SW,221,0.0,0.0,93,0.12,,---,0.55,VWS V14.00,2013-06-01 14:09:00,
2013-06-01 09:12:00,66.4,64.3,28.97,South,170,0.0,0.0,93,0.12,,---,0.55,VWS V14.00,2013-06-01 14:12:00,
2013-06-01 09:15:00,66.4,64.3,28.97,SE,128,0.0,0.0,93,0.12,,---,0.55,VWS V14.00,2013-06-01 14:15:00,
2013-06-01 09:18:00,66.2,64.1,28.97,SSE,168,0.0,0.0,93,0.08,,---,0.55,VWS V14.00,2013-06-01 14:18:00,
2013-06-01 09:24:00,66.0,63.9,28.94,SE,137,0.0,0.0,93,0.08,,---,0.55,VWS V14.00,2013-06-01 14:24:00,
2013-06-01 09:27:00,66.0,63.9,28.94,South,174,0.0,0.0,93,0.08,,---,0.55,VWS V14.00,2013-06-01 14:27:00,
2013-06-01 09:30:00,66.0,63.9,28.94,SSE,149,0.0,0.0,93,0.08,,---,0.55,VWS V14.00,2013-06-01 14:30:00,
2013-06-01 09:33:00,66.0,63.9,28.94,SSE,166,0.0,0.0,93,0.08,,---,0.55,VWS V14.00,2013-06-01 14:33:00,
2013-06-01 09:36:00,65.8,64.1,28.94,South,177,0.0,0.0,94,0.08,,---,0.55,VWS V14.00,2013-06-01 14:36:00,
2013-06-01 09:39:00,65.8,64.1,28.94,South,173,0.0,0.0,94,0.08,,---,0.55,VWS V14.00,2013-06-01 14:39:00,
2013-06-01 09:42:00,65.8,64.1,28.94,SSE,158,0.0,0.0,94,0.08,,---,0.55,VWS V14.00,2013-06-01 14:42:00,
2013-06-01 09:45:00,65.6,63.9,28.94,SSE,167,0.0,0.0,94,0.08,,---,0.55,VWS V14.00,2013-06-01 14:45:00,
2013-06-01 09:51:00,65.5,64.0,28.94,South,189,0.0,0.0,95,0.08,,---,0.59,VWS V14.00,2013-06-01 14:51:00,
2013-06-01 09:54:00,65.3,63.8,28.91,SE,145,0.0,0.0,95,0.08,,---,0.59,VWS V14.00,2013-06-01 14:54:00,
2013-06-01 09:57:00,65.1,63.6,28.91,SE,139,0.0,0.0,95,0.08,,---,0.59,VWS V14.00,2013-06-01 14:57:00,
2013-06-01 10:00:00,65.1,63.6,28.91,SSE,167,0.0,0.0,95,0.04,,---,0.59,VWS V14.00,2013-06-01 15:00:00,
2013-06-01 10:03:00,64.9,63.5,28.91,South,171,0.0,0.0,95,0.04,,---,0.59,VWS V14.00,2013-06-01 15:03:00,
2013-06-01 10:06:00,64.9,63.5,28.91,SE,140,0.0,0.0,95,0.04,,---,0.59,VWS V14.00,2013-06-01 15:06:00,
2013-06-01 10:09:00,64.9,63.8,28.88,SSE,160,0.0,0.0,96,0.04,,---,0.59,VWS V14.00,2013-06-01 15:09:00,
2013-06-01 10:12:00,64.9,63.5,28.88,SSE,156,0.0,0.0,95,0.04,,---,0.59,VWS V14.00,2013-06-01 15:12:00,
2013-06-01 10:15:00,65.1,63.6,28.88,SSE,158,0.0,0.0,95,0.04,,---,0.59,VWS V14.00,2013-06-01 15:15:00,
2013-06-01 10:18:00,65.1,63.6,28.88,SE,130,0.0,0.0,95,0.04,,---,0.59,VWS V14.00,2013-06-01 15:18:00,
2013-06-01 10:22:00,65.3,63.8,28.88,SE,140,0.0,0.0,95,0.04,,---,0.59,VWS V14.00,2013-06-01 15:22:00,
2013-06-01 10:28:00,65.5,63.7,28.91,SW,220,0.0,0.0,94,0.04,,---,0.59,VWS V14.00,2013-06-01 15:28:00,
2013-06-01 10:30:00,65.6,63.9,28.91,West,279,0.0,0.0,94,0.04,,---,0.59,VWS V14.00,2013-06-01 15:30:00,
2013-06-01 10:34:00,65.6,63.9,28.91,South,174,0.0,0.0,94,0.04,,---,0.59,VWS V14.00,2013-06-01 15:34:00,
2013-06-01 10:37:00,65.6,63.9,28.91,North,0,0.0,0.0,94,0.04,,---,0.59,VWS V14.00,2013-06-01 15:37:00,
2013-06-01 10:40:00,65.8,64.1,29.00,North,8,0.0,0.0,94,0.04,,---,0.59,VWS V14.00,2013-06-01 15:40:00,
2013-06-01 10:43:00,65.8,64.1,29.00,North,8,0.0,0.0,94,0.04,,---,0.59,VWS V14.00,2013-06-01 15:43:00,
2013-06-01 10:46:00,66.0,64.2,29.00,North,11,0.0,0.0,94,0.04,,---,0.59,VWS V14.00,2013-06-01 15:46:00,
2013-06-01 10:49:00,66.0,63.9,29.00,North,11,0.0,0.0,93,0.04,,---,0.59,VWS V14.00,2013-06-01 15:49:00,
2013-06-01 10:52:00,66.2,64.1,29.00,North,11,0.0,0.0,93,0.04,,---,0.59,VWS V14.00,2013-06-01 15:52:00,
2013-06-01 10:55:00,66.2,64.1,29.00,SSW,196,0.0,0.0,93,0.04,,---,0.59,VWS V14.00,2013-06-01 15:55:00,
2013-06-01 11:00:00,66.4,64.3,29.00,SSW,197,0.0,0.0,93,0.04,,---,0.59,VWS V14.00,2013-06-01 16:00:00,
2013-06-01 11:04:00,66.4,64.3,29.00,SSW,206,0.0,0.0,93,0.00,,---,0.59,VWS V14.00,2013-06-01 16:04:00,
2013-06-01 11:07:00,66.4,64.3,29.00,SSW,206,0.0,0.0,93,0.00,,---,0.59,VWS V14.00,2013-06-01 16:07:00,
2013-06-01 11:10:00,66.4,64.3,29.00,SSW,206,0.0,0.0,93,0.00,,---,0.59,VWS V14.00,2013-06-01 16:10:00,
2013-06-01 11:13:00,66.5,64.5,29.00,SSW,206,0.0,0.0,93,0.00,,---,0.59,VWS V14.00,2013-06-01 16:13:00,
2013-06-01 11:15:00,66.5,64.5,29.00,SSW,206,0.0,0.0,93,0.00,,---,0.59,VWS V14.00,2013-06-01 16:15:00,
2013-06-01 11:16:00,66.5,64.5,29.00,SSW,206,0.0,0.0,93,0.00,,---,0.59,VWS V14.00,2013-06-01 16:16:00,
2013-06-01 11:22:00,66.7,64.6,29.00,North,7,0.0,0.0,93,0.00,,---,0.59,VWS V14.00,2013-06-01 16:22:00,
2013-06-01 11:25:00,66.7,64.6,29.03,North,6,0.0,0.0,93,0.00,,---,0.59,VWS V14.00,2013-06-01 16:25:00,
2013-06-01 11:28:00,66.9,64.8,29.03,North,6,0.0,0.0,93,0.00,,---,0.59,VWS V14.00,2013-06-01 16:28:00,
2013-06-01 11:30:00,66.9,64.8,29.03,North,6,0.0,0.0,93,0.00,,---,0.59,VWS V14.00,2013-06-01 16:30:00,
2013-06-01 11:34:00,66.9,64.8,29.03,North,6,0.0,0.0,93,0.00,,---,0.59,VWS V14.00,2013-06-01 16:34:00,
2013-06-01 11:40:00,67.1,65.0,29.00,North,0,0.0,0.0,93,0.00,,---,0.59,VWS V14.00,2013-06-01 16:40:00,
2013-06-01 11:43:00,67.3,64.9,29.00,North,0,0.0,0.0,92,0.00,,---,0.59,VWS V14.00,2013-06-01 16:43:00,
2013-06-01 11:45:00,67.3,64.9,29.00,North,0,0.0,0.0,92,0.00,,---,0.59,VWS V14.00,2013-06-01 16:45:00,
2013-06-01 11:46:00,67.4,65.0,29.00,West,274,0.0,0.0,92,0.00,,---,0.59,VWS V14.00,2013-06-01 16:46:00,
2013-06-01 11:52:00,67.4,65.0,29.00,SSE,165,0.0,0.0,92,0.00,,---,0.59,VWS V14.00,2013-06-01 16:52:00,
2013-06-01 11:58:00,67.6,65.2,29.03,North,3,0.0,0.0,92,0.00,,---,0.59,VWS V14.00,2013-06-01 16:58:00,
2013-06-01 12:00:00,67.8,65.1,29.03,North,353,0.0,0.0,91,0.00,,---,0.59,VWS V14.00,2013-06-01 17:00:00,
2013-06-01 12:07:00,68.3,65.3,29.03,NNW,343,0.0,0.0,90,0.00,,---,0.59,VWS V14.00,2013-06-01 17:07:00,
2013-06-01 12:10:00,68.7,65.7,29.03,NNW,344,0.0,0.0,90,0.00,,---,0.59,VWS V14.00,2013-06-01 17:10:00,
2013-06-01 12:13:00,68.9,65.8,29.03,NNW,332,0.0,0.0,90,0.00,,---,0.59,VWS V14.00,2013-06-01 17:13:00,
2013-06-01 12:15:00,69.1,66.0,29.03,West,275,0.0,0.0,90,0.00,,---,0.59,VWS V14.00,2013-06-01 17:15:00,
2013-06-01 12:16:00,69.1,66.0,29.03,NNE,13,0.0,0.0,90,0.00,,---,0.59,VWS V14.00,2013-06-01 17:16:00,
2013-06-01 12:22:00,69.2,65.5,29.03,NE,42,0.0,0.0,88,0.00,,---,0.59,VWS V14.00,2013-06-01 17:22:00,
2013-06-01 12:25:00,69.2,65.5,29.03,NE,42,0.0,0.0,88,0.00,,---,0.59,VWS V14.00,2013-06-01 17:25:00,
2013-06-01 12:28:00,69.2,65.5,29.03,NE,42,0.0,0.0,88,0.00,,---,0.59,VWS V14.00,2013-06-01 17:28:00,
2013-06-01 12:30:00,69.2,65.5,29.03,NE,42,0.0,0.0,88,0.00,,---,0.59,VWS V14.00,2013-06-01 17:30:00,
2013-06-01 12:34:00,69.2,65.5,29.03,NE,42,0.0,0.0,88,0.00,,---,0.59,VWS V14.00,2013-06-01 17:34:00,
2013-06-01 12:37:00,69.4,65.7,29.03,NE,42,0.0,0.0,88,0.00,,---,0.59,VWS V14.00,2013-06-01 17:37:00,
2013-06-01 12:40:00,69.4,65.7,29.03,NE,43,0.0,0.0,88,0.00,,---,0.59,VWS V14.00,2013-06-01 17:40:00,
2013-06-01 12:43:00,69.4,65.4,29.03,North,9,0.0,0.0,87,0.00,,---,0.59,VWS V14.00,2013-06-01 17:43:00,
2013-06-01 12:45:00,69.4,65.4,29.03,NW,306,0.0,0.0,87,0.00,,---,0.59,VWS V14.00,2013-06-01 17:45:00,
2013-06-01 12:46:00,69.4,65.4,29.03,SW,223,0.0,0.0,87,0.00,,---,0.59,VWS V14.00,2013-06-01 17:46:00,
2013-06-01 12:52:00,70.0,65.9,29.03,SW,232,0.0,0.0,87,0.00,,---,0.59,VWS V14.00,2013-06-01 17:52:00,
2013-06-01 12:55:00,70.1,65.8,29.03,SW,218,0.0,0.0,86,0.00,,---,0.59,VWS V14.00,2013-06-01 17:55:00,
2013-06-01 12:58:00,70.5,66.1,29.03,SW,218,0.0,0.0,86,0.00,,---,0.59,VWS V14.00,2013-06-01 17:58:00,
2013-06-01 13:04:00,70.9,66.1,29.03,South,186,0.0,0.0,85,0.00,,---,0.59,VWS V14.00,2013-06-01 18:04:00,
2013-06-01 13:07:00,71.2,66.5,29.03,South,186,0.0,0.0,85,0.00,,---,0.59,VWS V14.00,2013-06-01 18:07:00,
2013-06-01 13:10:00,71.6,66.8,29.06,SSE,153,0.0,0.0,85,0.00,,---,0.59,VWS V14.00,2013-06-01 18:10:00,
2013-06-01 13:13:00,71.8,66.7,29.06,SSE,153,0.0,0.0,84,0.00,,---,0.59,VWS V14.00,2013-06-01 18:13:00,
2013-06-01 13:15:00,71.8,66.7,29.06,SSE,153,0.0,0.0,84,0.00,,---,0.59,VWS V14.00,2013-06-01 18:15:00,
2013-06-01 13:16:00,71.9,66.5,29.06,SSE,153,0.0,0.0,83,0.00,,---,0.59,VWS V14.00,2013-06-01 18:16:00,
2013-06-01 13:19:00,72.1,66.3,29.06,SSE,161,0.0,0.0,82,0.00,,---,0.59,VWS V14.00,2013-06-01 18:19:00,
2013-06-01 13:22:00,72.1,66.0,29.06,South,171,0.0,0.0,81,0.00,,---,0.59,VWS V14.00,2013-06-01 18:22:00,
2013-06-01 13:28:00,72.5,66.0,29.06,SW,215,0.0,0.0,80,0.00,,---,0.59,VWS V14.00,2013-06-01 18:28:00,
2013-06-01 13:30:00,72.5,66.0,29.06,SSW,203,0.0,0.0,80,0.00,,---,0.59,VWS V14.00,2013-06-01 18:30:00,
2013-06-01 13:31:00,72.5,66.0,29.06,SSW,203,0.0,0.0,80,0.00,,---,0.59,VWS V14.00,2013-06-01 18:31:00,
2013-06-01 13:37:00,72.8,66.3,29.06,SW,220,0.0,0.0,80,0.00,,---,0.59,VWS V14.00,2013-06-01 18:37:00,
2013-06-01 13:40:00,72.8,65.9,29.06,SSE,158,0.0,0.0,79,0.00,,---,0.59,VWS V14.00,2013-06-01 18:40:00,
2013-06-01 13:43:00,73.0,66.1,29.06,WSW,244,0.0,0.0,79,0.00,,---,0.59,VWS V14.00,2013-06-01 18:43:00,
2013-06-01 13:45:00,73.0,66.1,29.06,WSW,244,0.0,0.0,79,0.00,,---,0.59,VWS V14.00,2013-06-01 18:45:00,
2013-06-01 13:52:00,72.8,65.6,29.06,SSW,208,0.0,0.0,78,0.00,,---,0.59,VWS V14.00,2013-06-01 18:52:00,
2013-06-01 13:58:00,73.0,65.8,29.06,SSW,195,0.0,0.0,78,0.00,,---,0.59,VWS V14.00,2013-06-01 18:58:00,
2013-06-01 14:00:00,73.2,65.6,29.06,ESE,105,0.0,0.0,77,0.00,,---,0.59,VWS V14.00,2013-06-01 19:00:00,
2013-06-01 14:01:00,73.2,65.6,29.06,SSE,154,0.0,0.0,77,0.00,,---,0.59,VWS V14.00,2013-06-01 19:01:00,
2013-06-01 14:04:00,73.4,65.7,29.06,SSE,154,0.0,0.0,77,0.00,,---,0.59,VWS V14.00,2013-06-01 19:04:00,
2013-06-01 14:07:00,73.6,65.9,29.06,SE,143,0.0,0.0,77,0.00,,---,0.59,VWS V14.00,2013-06-01 19:07:00,
2013-06-01 14:10:00,73.6,65.5,29.06,ENE,74,0.0,0.0,76,0.00,,---,0.59,VWS V14.00,2013-06-01 19:10:00,
2013-06-01 14:13:00,73.7,65.7,29.06,South,171,0.0,0.0,76,0.00,,---,0.59,VWS V14.00,2013-06-01 19:13:00,
2013-06-01 14:15:00,73.9,65.9,29.06,NW,325,0.0,0.0,76,0.00,,---,0.59,VWS V14.00,2013-06-01 19:15:00,
2013-06-01 14:19:00,74.1,65.7,29.06,ESE,118,0.0,0.0,75,0.00,,---,0.59,VWS V14.00,2013-06-01 19:19:00,
2013-06-01 14:22:00,74.5,66.0,29.06,SSE,153,0.0,0.0,75,0.00,,---,0.59,VWS V14.00,2013-06-01 19:22:00,
2013-06-01 14:28:00,75.0,66.2,29.06,SSE,153,0.0,0.0,74,0.00,,---,0.59,VWS V14.00,2013-06-01 19:28:00,
2013-06-01 14:34:00,75.5,66.3,29.06,South,178,0.0,0.0,73,0.00,,---,0.59,VWS V14.00,2013-06-01 19:34:00,
2013-06-01 14:37:00,75.9,66.2,29.06,South,182,0.0,0.0,72,0.00,,---,0.59,VWS V14.00,2013-06-01 19:37:00,
2013-06-01 14:40:00,76.3,66.6,29.06,ENE,60,0.0,0.0,72,0.00,,---,0.59,VWS V14.00,2013-06-01 19:40:00,
2013-06-01 14:43:00,76.6,66.5,29.06,ESE,112,0.0,0.0,71,0.00,,---,0.59,VWS V14.00,2013-06-01 19:43:00,
2013-06-01 14:45:00,76.6,66.1,29.06,SSE,149,0.0,0.0,70,0.00,,---,0.59,VWS V14.00,2013-06-01 19:45:00,
2013-06-01 14:49:00,76.8,65.9,29.06,SE,139,0.0,0.0,69,0.00,,---,0.59,VWS V14.00,2013-06-01 19:49:00,
2013-06-01 14:52:00,77.0,66.0,29.06,SE,134,0.0,0.0,69,0.00,,---,0.59,VWS V14.00,2013-06-01 19:52:00,
2013-06-01 14:55:00,77.2,66.2,29.06,SSE,163,0.0,0.0,69,0.00,,---,0.59,VWS V14.00,2013-06-01 19:55:00,
2013-06-01 14:58:00,77.5,66.6,29.06,SSE,168,0.0,0.0,69,0.00,,---,0.59,VWS V14.00,2013-06-01 19:58:00,
2013-06-01 15:00:00,77.7,66.7,29.06,SSE,166,0.0,0.0,69,0.00,,---,0.59,VWS V14.00,2013-06-01 20:00:00,
2013-06-01 15:01:00,77.7,66.3,29.06,SE,145,0.0,0.0,68,0.00,,---,0.59,VWS V14.00,2013-06-01 20:01:00,
2013-06-01 15:04:00,77.9,66.1,29.06,SSE,167,0.0,0.0,67,0.00,,---,0.59,VWS V14.00,2013-06-01 20:04:00,
2013-06-01 15:07:00,78.1,66.2,29.06,ESE,120,0.0,0.0,67,0.00,,---,0.59,VWS V14.00,2013-06-01 20:07:00,
2013-06-01 15:10:00,77.9,65.6,29.06,SE,136,0.0,0.0,66,0.00,,---,0.59,VWS V14.00,2013-06-01 20:10:00,
2013-06-01 15:13:00,77.7,65.4,29.06,ENE,60,0.0,0.0,66,0.00,,---,0.59,VWS V14.00,2013-06-01 20:13:00,
2013-06-01 15:16:00,77.7,65.4,29.06,SSE,158,0.0,0.0,66,0.00,,---,0.59,VWS V14.00,2013-06-01 20:16:00,
2013-06-01 15:19:00,77.7,65.4,29.06,SSE,162,0.0,0.0,66,0.00,,---,0.59,VWS V14.00,2013-06-01 20:19:00,
2013-06-01 15:22:00,78.2,66.4,29.06,South,173,0.0,0.0,67,0.00,,---,0.59,VWS V14.00,2013-06-01 20:22:00,
2013-06-01 15:28:00,78.4,65.7,29.06,SE,145,0.0,0.0,65,0.00,,---,0.59,VWS V14.00,2013-06-01 20:28:00,
2013-06-01 15:30:00,78.4,65.7,29.06,SE,126,0.0,0.0,65,0.00,,---,0.59,VWS V14.00,2013-06-01 20:30:00,
2013-06-01 15:31:00,78.4,65.7,29.06,East,96,0.0,0.0,65,0.00,,---,0.59,VWS V14.00,2013-06-01 20:31:00,
2013-06-01 15:37:00,78.4,65.2,29.06,SSE,151,0.0,0.0,64,0.00,,---,0.59,VWS V14.00,2013-06-01 20:37:00,
2013-06-01 15:40:00,78.4,65.7,29.06,SSE,151,0.0,0.0,65,0.00,,---,0.59,VWS V14.00,2013-06-01 20:40:00,
2013-06-01 15:43:00,78.8,65.6,29.06,SSE,151,0.0,0.0,64,0.00,,---,0.59,VWS V14.00,2013-06-01 20:43:00,
2013-06-01 15:46:00,78.8,65.6,29.06,SSE,158,0.0,0.0,64,0.00,,---,0.59,VWS V14.00,2013-06-01 20:46:00,
2013-06-01 15:49:00,78.8,65.6,29.06,SSE,156,0.0,0.0,64,0.00,,---,0.59,VWS V14.00,2013-06-01 20:49:00,
2013-06-01 15:55:00,79.1,65.9,29.06,SSE,154,0.0,0.0,64,0.00,,---,0.59,VWS V14.00,2013-06-01 20:55:00,
2013-06-01 15:59:00,79.5,65.8,29.06,South,190,0.0,0.0,63,0.00,,---,0.59,VWS V14.00,2013-06-01 20:59:00,
2013-06-01 16:00:00,79.5,65.3,29.06,South,176,0.0,0.0,62,0.00,,---,0.59,VWS V14.00,2013-06-01 21:00:00,
2013-06-01 16:05:00,79.7,66.0,29.06,South,174,0.0,0.0,63,0.00,,---,0.59,VWS V14.00,2013-06-01 21:05:00,
2013-06-01 16:08:00,79.9,65.7,29.06,South,180,0.0,0.0,62,0.00,,---,0.59,VWS V14.00,2013-06-01 21:08:00,
2013-06-01 16:11:00,80.0,65.9,29.03,SSW,205,0.0,0.0,62,0.00,,---,0.59,VWS V14.00,2013-06-01 21:11:00,
2013-06-01 16:14:00,80.0,65.4,29.03,SSW,193,0.0,0.0,61,0.00,,---,0.59,VWS V14.00,2013-06-01 21:14:00,
2013-06-01 16:15:00,80.2,65.6,29.03,SSE,149,0.0,0.0,61,0.00,,---,0.59,VWS V14.00,2013-06-01 21:15:00,
2013-06-01 16:17:00,80.2,65.6,29.03,South,180,0.0,0.0,61,0.00,,---,0.59,VWS V14.00,2013-06-01 21:17:00,
2013-06-01 16:20:00,80.6,65.4,29.03,SSE,161,0.0,0.0,60,0.00,,---,0.59,VWS V14.00,2013-06-01 21:20:00,
2013-06-01 16:23:00,80.9,65.8,29.03,SE,131,0.0,0.0,60,0.00,,---,0.59,VWS V14.00,2013-06-01 21:23:00,
2013-06-01 16:26:00,81.3,65.6,29.03,SE,134,0.0,0.0,59,0.00,,---,0.59,VWS V14.00,2013-06-01 21:26:00,
2013-06-01 16:29:00,81.7,65.9,29.03,South,171,0.0,0.0,59,0.00,,---,0.59,VWS V14.00,2013-06-01 21:29:00,
2013-06-01 16:30:00,81.8,65.6,29.03,South,178,0.0,0.0,58,0.00,,---,0.59,VWS V14.00,2013-06-01 21:30:00,
2013-06-01 16:32:00,82.0,65.8,29.03,South,181,0.0,0.0,58,0.00,,---,0.59,VWS V14.00,2013-06-01 21:32:00,
2013-06-01 16:38:00,82.4,65.1,29.03,South,191,0.0,0.0,56,0.00,,---,0.59,VWS V14.00,2013-06-01 21:38:00,
2013-06-01 16:44:00,82.9,65.6,29.03,SSE,155,0.0,0.0,56,0.00,,---,0.59,VWS V14.00,2013-06-01 21:44:00,
2013-06-01 16:45:00,82.9,65.1,29.03,SSE,168,0.0,0.0,55,0.00,,---,0.59,VWS V14.00,2013-06-01 21:45:00,
2013-06-01 16:47:00,82.9,65.1,29.03,ESE,113,0.0,0.0,55,0.00,,---,0.59,VWS V14.00,2013-06-01 21:47:00,
2013-06-01 16:53:00,82.6,64.8,29.03,South,186,0.0,0.0,55,0.00,,---,0.59,VWS V14.00,2013-06-01 21:53:00,
2013-06-01 16:56:00,82.4,65.1,29.03,SE,139,0.0,0.0,56,0.00,,---,0.59,VWS V14.00,2013-06-01 21:56:00,
2013-06-01 16:59:00,82.2,64.4,29.03,SSE,159,0.0,0.0,55,0.00,,---,0.59,VWS V14.00,2013-06-01 21:59:00,
2013-06-01 17:00:00,82.0,64.8,29.03,South,176,0.0,0.0,56,0.00,,---,0.59,VWS V14.00,2013-06-01 22:00:00,
2013-06-01 17:02:00,82.0,65.3,29.03,South,179,0.0,0.0,57,0.00,,---,0.59,VWS V14.00,2013-06-01 22:02:00,
2013-06-01 17:05:00,81.7,65.0,29.03,SSW,202,0.0,0.0,57,0.00,,---,0.59,VWS V14.00,2013-06-01 22:05:00,
2013-06-01 17:08:00,81.1,64.5,29.03,SSW,208,0.0,0.0,57,0.00,,---,0.59,VWS V14.00,2013-06-01 22:08:00,
2013-06-01 17:11:00,80.8,64.6,29.03,SE,140,0.0,0.0,58,0.00,,---,0.59,VWS V14.00,2013-06-01 22:11:00,
2013-06-01 17:14:00,80.8,65.1,29.03,SSE,166,0.0,0.0,59,0.00,,---,0.59,VWS V14.00,2013-06-01 22:14:00,
2013-06-01 17:15:00,80.8,65.1,29.03,SSE,166,0.0,0.0,59,0.00,,---,0.59,VWS V14.00,2013-06-01 22:15:00,
2013-06-01 17:17:00,80.8,65.1,29.03,SSE,166,0.0,0.0,59,0.00,,---,0.59,VWS V14.00,2013-06-01 22:17:00,
2013-06-01 17:20:00,81.3,65.6,29.03,SSE,166,0.0,0.0,59,0.00,,---,0.59,VWS V14.00,2013-06-01 22:20:00,
2013-06-01 17:23:00,81.7,65.9,29.03,SSE,166,0.0,0.0,59,0.00,,---,0.59,VWS V14.00,2013-06-01 22:23:00,
2013-06-01 17:26:00,82.0,65.8,29.03,SSE,166,0.0,0.0,58,0.00,,---,0.59,VWS V14.00,2013-06-01 22:26:00,
2013-06-01 17:30:00,81.7,65.0,29.03,SE,143,0.0,0.0,57,0.00,,---,0.59,VWS V14.00,2013-06-01 22:30:00,
2013-06-01 17:32:00,81.5,65.3,29.03,SSE,159,0.0,0.0,58,0.00,,---,0.59,VWS V14.00,2013-06-01 22:32:00,
2013-06-01 17:35:00,81.3,65.1,29.03,SSE,159,0.0,0.0,58,0.00,,---,0.59,VWS V14.00,2013-06-01 22:35:00,
2013-06-01 17:38:00,81.1,65.4,29.03,SSE,159,0.0,0.0,59,0.00,,---,0.59,VWS V14.00,2013-06-01 22:38:00,
2013-06-01 17:41:00,80.9,64.8,29.03,South,190,0.0,0.0,58,0.00,,---,0.59,VWS V14.00,2013-06-01 22:41:00,
2013-06-01 17:44:00,80.6,64.9,29.03,South,190,0.0,0.0,59,0.00,,---,0.59,VWS V14.00,2013-06-01 22:44:00,
2013-06-01 17:45:00,80.4,64.8,29.03,South,190,0.0,0.0,59,0.00,,---,0.59,VWS V14.00,2013-06-01 22:45:00,
2013-06-01 17:47:00,80.2,65.1,29.03,South,190,0.0,0.0,60,0.00,,---,0.59,VWS V14.00,2013-06-01 22:47:00,
2013-06-01 17:50:00,80.0,64.9,29.03,South,190,0.0,0.0,60,0.00,,---,0.59,VWS V14.00,2013-06-01 22:50:00,
2013-06-01 17:53:00,79.9,64.8,29.03,South,186,0.0,0.0,60,0.00,,---,0.59,VWS V14.00,2013-06-01 22:53:00,
2013-06-01 17:56:00,79.5,64.9,29.03,SE,139,0.0,0.0,61,0.00,,---,0.59,VWS V14.00,2013-06-01 22:56:00,
2013-06-01 18:00:00,79.3,65.2,29.03,SSE,155,0.0,0.0,62,0.00,,---,0.59,VWS V14.00,2013-06-01 23:00:00,
2013-06-01 18:05:00,79.1,65.5,29.03,SSE,155,0.0,0.0,63,0.00,,---,0.59,VWS V14.00,2013-06-01 23:05:00,
2013-06-01 18:08:00,79.0,65.3,29.03,South,183,0.0,0.0,63,0.00,,---,0.59,VWS V14.00,2013-06-01 23:08:00,
2013-06-01 18:11:00,79.0,65.3,29.03,SE,146,0.0,0.0,63,0.00,,---,0.59,VWS V14.00,2013-06-01 23:11:00,
2013-06-01 18:15:00,79.0,65.3,29.03,South,172,0.0,0.0,63,0.00,,---,0.59,VWS V14.00,2013-06-01 23:15:00,
2013-06-01 18:17:00,79.0,65.3,29.03,South,172,0.0,0.0,63,0.00,,---,0.59,VWS V14.00,2013-06-01 23:17:00,
2013-06-01 18:20:00,79.0,65.3,29.03,South,181,0.0,0.0,63,0.00,,---,0.59,VWS V14.00,2013-06-01 23:20:00,
2013-06-01 18:26:00,78.8,65.6,29.00,South,181,0.0,0.0,64,0.00,,---,0.59,VWS V14.00,2013-06-01 23:26:00,
2013-06-01 18:29:00,78.8,65.6,29.00,South,181,0.0,0.0,64,0.00,,---,0.59,VWS V14.00,2013-06-01 23:29:00,
2013-06-01 18:30:00,78.8,65.6,29.00,South,181,0.0,0.0,64,0.00,,---,0.59,VWS V14.00,2013-06-01 23:30:00,
2013-06-01 18:35:00,78.8,65.1,29.00,SW,223,0.0,0.0,63,0.00,,---,0.59,VWS V14.00,2013-06-01 23:35:00,
2013-06-01 18:41:00,78.2,65.1,29.03,WSW,256,0.0,0.0,64,0.00,,---,0.59,VWS V14.00,2013-06-01 23:41:00,
2013-06-01 18:44:00,78.1,64.9,29.03,WSW,256,0.0,0.0,64,0.00,,---,0.59,VWS V14.00,2013-06-01 23:44:00,
2013-06-01 18:47:00,77.9,64.7,29.03,WSW,256,0.0,0.0,64,0.00,,---,0.59,VWS V14.00,2013-06-01 23:47:00,
2013-06-01 18:53:00,77.3,64.7,29.03,SSE,150,0.0,0.0,65,0.00,,---,0.59,VWS V14.00,2013-06-01 23:53:00,
2013-06-01 18:56:00,77.2,64.5,29.03,SSE,150,0.0,0.0,65,0.00,,---,0.59,VWS V14.00,2013-06-01 23:56:00,
2013-06-01 18:59:00,77.0,64.8,29.03,South,186,0.0,0.0,66,0.00,,---,0.59,VWS V14.00,2013-06-01 23:59:00,
2013-06-01 19:00:00,77.0,64.8,29.03,South,186,0.0,0.0,66,0.00,,---,0.59,VWS V14.00,2013-06-02 00:00:00,
2013-06-01 19:05:00,76.6,64.8,29.03,SSE,148,0.0,0.0,67,0.00,,---,0.59,VWS V14.00,2013-06-02 00:05:00,
2013-06-01 19:08:00,76.4,65.1,29.03,SE,134,0.0,0.0,68,0.00,,---,0.59,VWS V14.00,2013-06-02 00:08:00,
2013-06-01 19:11:00,76.3,64.9,29.03,South,172,0.0,0.0,68,0.00,,---,0.59,VWS V14.00,2013-06-02 00:11:00,
2013-06-01 19:14:00,76.1,65.2,29.03,South,172,0.0,0.0,69,0.00,,---,0.59,VWS V14.00,2013-06-02 00:14:00,
2013-06-01 19:17:00,75.9,65.0,29.03,SSW,196,0.0,0.0,69,0.00,,---,0.59,VWS V14.00,2013-06-02 00:17:00,
2013-06-01 19:20:00,75.7,64.8,29.03,SSW,195,0.0,0.0,69,0.00,,---,0.59,VWS V14.00,2013-06-02 00:20:00,
2013-06-01 19:26:00,75.4,64.9,29.03,South,181,0.0,0.0,70,0.00,,---,0.59,VWS V14.00,2013-06-02 00:26:00,
2013-06-01 19:29:00,75.2,64.7,29.03,South,181,0.0,0.0,70,0.00,,---,0.59,VWS V14.00,2013-06-02 00:29:00,
2013-06-01 19:32:00,74.8,64.8,29.03,South,181,0.0,0.0,71,0.00,,---,0.59,VWS V14.00,2013-06-02 00:32:00,
2013-06-01 19:35:00,74.6,65.0,29.03,SSE,167,0.0,0.0,72,0.00,,---,0.59,VWS V14.00,2013-06-02 00:35:00,
2013-06-01 19:38:00,74.5,64.8,29.03,SSW,198,0.0,0.0,72,0.00,,---,0.59,VWS V14.00,2013-06-02 00:38:00,
2013-06-01 19:44:00,74.1,64.9,29.03,SSE,155,0.0,0.0,73,0.00,,---,0.59,VWS V14.00,2013-06-02 00:44:00,
2013-06-01 19:45:00,73.9,65.1,29.03,South,182,0.0,0.0,74,0.00,,---,0.59,VWS V14.00,2013-06-02 00:45:00,
2013-06-01 19:47:00,73.9,65.1,29.03,SSE,168,0.0,0.0,74,0.00,,---,0.59,VWS V14.00,2013-06-02 00:47:00,
2013-06-01 19:50:00,73.7,64.9,29.03,SSE,155,0.0,0.0,74,0.00,,---,0.59,VWS V14.00,2013-06-02 00:50:00,
2013-06-01 19:56:00,73.6,65.2,29.03,SSE,157,0.0,0.0,75,0.00,,---,0.59,VWS V14.00,2013-06-02 00:56:00,
2013-06-01 19:59:00,73.6,65.2,29.03,SSE,157,0.0,0.0,75,0.00,,---,0.59,VWS V14.00,2013-06-02 00:59:00,
2013-06-01 20:00:00,73.4,65.0,29.03,SSE,157,0.0,0.0,75,0.00,,---,0.59,VWS V14.00,2013-06-02 01:00:00,
2013-06-01 20:05:00,73.2,65.2,29.03,SSE,157,0.0,0.0,76,0.00,,---,0.59,VWS V14.00,2013-06-02 01:05:00,
2013-06-01 20:08:00,73.2,65.2,29.03,SSE,157,0.0,0.0,76,0.00,,---,0.59,VWS V14.00,2013-06-02 01:08:00,
2013-06-01 20:11:00,73.0,65.0,29.03,SSE,157,0.0,0.0,76,0.00,,---,0.59,VWS V14.00,2013-06-02 01:11:00,
2013-06-01 20:14:00,73.0,65.0,29.03,SSE,157,0.0,0.0,76,0.00,,---,0.59,VWS V14.00,2013-06-02 01:14:00,
2013-06-01 20:17:00,73.0,65.4,29.03,SSE,157,0.0,0.0,77,0.00,,---,0.59,VWS V14.00,2013-06-02 01:17:00,
2013-06-01 20:20:00,72.8,65.6,29.03,SSE,157,0.0,0.0,78,0.00,,---,0.59,VWS V14.00,2013-06-02 01:20:00,
2013-06-01 20:23:00,72.7,65.8,29.06,SSE,157,0.0,0.0,79,0.00,,---,0.59,VWS V14.00,2013-06-02 01:23:00,
2013-06-01 20:26:00,72.5,66.0,29.06,SSE,157,0.0,0.0,80,0.00,,---,0.59,VWS V14.00,2013-06-02 01:26:00,
2013-06-01 20:29:00,72.3,65.8,29.06,SSE,158,0.0,0.0,80,0.00,,---,0.59,VWS V14.00,2013-06-02 01:29:00,
2013-06-01 20:30:00,72.3,65.8,29.06,SSE,158,0.0,0.0,80,0.00,,---,0.59,VWS V14.00,2013-06-02 01:30:00,
2013-06-01 20:32:00,72.3,65.8,29.06,South,179,0.0,0.0,80,0.00,,---,0.59,VWS V14.00,2013-06-02 01:32:00,
2013-06-01 20:35:00,71.9,65.1,29.06,South,179,0.0,0.0,79,0.00,,---,0.59,VWS V14.00,2013-06-02 01:35:00,
2013-06-01 20:41:00,71.8,64.2,29.06,South,179,0.0,0.0,77,0.00,,---,0.59,VWS V14.00,2013-06-02 01:41:00,
2013-06-01 20:44:00,71.8,64.2,29.06,South,179,0.0,0.0,77,0.00,,---,0.59,VWS V14.00,2013-06-02 01:44:00,
2013-06-01 20:45:00,71.8,64.2,29.06,South,179,0.0,0.0,77,0.00,,---,0.59,VWS V14.00,2013-06-02 01:45:00,
2013-06-01 20:47:00,71.6,63.2,29.06,South,179,0.0,0.0,75,0.00,,---,0.59,VWS V14.00,2013-06-02 01:47:00,
2013-06-01 20:53:00,71.4,63.1,29.06,SSW,205,0.0,0.0,75,0.00,,---,0.59,VWS V14.00,2013-06-02 01:53:00,
2013-06-01 20:59:00,71.0,62.3,29.06,SSW,205,0.0,0.0,74,0.00,,---,0.59,VWS V14.00,2013-06-02 01:59:00,
2013-06-01 21:00:00,71.0,62.3,29.06,ESE,103,0.0,0.0,74,0.00,,---,0.59,VWS V14.00,2013-06-02 02:00:00,
2013-06-01 21:05:00,70.7,62.0,29.06,SW,232,0.0,0.0,74,0.00,,---,0.59,VWS V14.00,2013-06-02 02:05:00,
2013-06-01 21:08:00,70.7,62.0,29.06,South,191,0.0,0.0,74,0.00,,---,0.59,VWS V14.00,2013-06-02 02:08:00,
2013-06-01 21:11:00,70.7,62.0,29.06,South,191,0.0,0.0,74,0.00,,---,0.59,VWS V14.00,2013-06-02 02:11:00,
2013-06-01 21:14:00,70.7,62.0,29.06,South,191,0.0,0.0,74,0.00,,---,0.59,VWS V14.00,2013-06-02 02:14:00,
2013-06-01 21:15:00,70.7,62.0,29.06,South,191,0.0,0.0,74,0.00,,---,0.59,VWS V14.00,2013-06-02 02:15:00,
2013-06-01 21:21:00,70.0,61.7,29.06,South,191,0.0,0.0,75,0.00,,---,0.59,VWS V14.00,2013-06-02 02:21:00,
2013-06-01 21:24:00,70.0,61.7,29.06,South,191,0.0,0.0,75,0.00,,---,0.59,VWS V14.00,2013-06-02 02:24:00,
2013-06-01 21:27:00,69.8,61.5,29.06,South,191,0.0,0.0,75,0.00,,---,0.59,VWS V14.00,2013-06-02 02:27:00,
2013-06-01 21:30:00,69.6,61.7,29.06,South,191,0.0,0.0,76,0.00,,---,0.59,VWS V14.00,2013-06-02 02:30:00,
2013-06-01 21:36:00,69.2,62.1,29.06,WNW,295,0.0,0.0,78,0.00,,---,0.59,VWS V14.00,2013-06-02 02:36:00,
2013-06-01 21:39:00,69.2,62.1,29.06,WNW,295,0.0,0.0,78,0.00,,---,0.59,VWS V14.00,2013-06-02 02:39:00,
2013-06-01 21:42:00,69.1,61.9,29.06,WNW,285,0.0,0.0,78,0.00,,---,0.59,VWS V14.00,2013-06-02 02:42:00,
2013-06-01 21:45:00,68.9,61.8,29.06,WNW,285,0.0,0.0,78,0.00,,---,0.59,VWS V14.00,2013-06-02 02:45:00,
2013-06-01 21:48:00,68.7,61.9,29.06,WNW,285,0.0,0.0,79,0.00,,---,0.59,VWS V14.00,2013-06-02 02:48:00,
2013-06-01 21:54:00,68.5,61.8,29.09,WNW,285,0.0,0.0,79,0.00,,---,0.59,VWS V14.00,2013-06-02 02:54:00,
2013-06-01 21:57:00,68.3,61.6,29.09,WNW,285,0.0,0.0,79,0.00,,---,0.59,VWS V14.00,2013-06-02 02:57:00,
2013-06-01 22:00:00,68.2,61.4,29.09,WNW,285,0.0,0.0,79,0.00,,---,0.59,VWS V14.00,2013-06-02 03:00:00,
2013-06-01 22:03:00,68.2,61.0,29.09,WNW,284,0.0,0.0,78,0.00,,---,0.59,VWS V14.00,2013-06-02 03:03:00,
2013-06-01 22:09:00,68.2,61.4,29.09,WNW,285,0.0,0.0,79,0.00,,---,0.59,VWS V14.00,2013-06-02 03:09:00,
2013-06-01 22:12:00,68.2,61.4,29.09,WNW,285,0.0,0.0,79,0.00,,---,0.59,VWS V14.00,2013-06-02 03:12:00,
2013-06-01 22:15:00,68.2,61.4,29.09,WNW,285,0.0,0.0,79,0.00,,---,0.59,VWS V14.00,2013-06-02 03:15:00,
2013-06-01 22:21:00,68.2,61.0,29.09,West,281,0.0,0.0,78,0.00,,---,0.59,VWS V14.00,2013-06-02 03:21:00,
2013-06-01 22:24:00,68.2,61.0,29.09,South,187,0.0,0.0,78,0.00,,---,0.59,VWS V14.00,2013-06-02 03:24:00,
2013-06-01 22:27:00,68.2,61.0,29.09,SE,143,0.0,0.0,78,0.00,,---,0.59,VWS V14.00,2013-06-02 03:27:00,
2013-06-01 22:30:00,68.2,60.7,29.09,SSW,194,0.0,0.0,77,0.00,,---,0.59,VWS V14.00,2013-06-02 03:30:00,
2013-06-01 22:36:00,68.2,60.3,29.09,SSW,192,0.0,0.0,76,0.00,,---,0.59,VWS V14.00,2013-06-02 03:36:00,
2013-06-01 22:39:00,68.0,60.1,29.09,SSW,192,0.0,0.0,76,0.00,,---,0.59,VWS V14.00,2013-06-02 03:39:00,
2013-06-01 22:42:00,68.0,60.1,29.09,SSW,192,0.0,0.0,76,0.00,,---,0.59,VWS V14.00,2013-06-02 03:42:00,
2013-06-01 22:45:00,67.8,60.0,29.09,South,187,0.0,0.0,76,0.00,,---,0.59,VWS V14.00,2013-06-02 03:45:00,
2013-06-01 22:51:00,67.6,60.2,29.09,SSE,149,0.0,0.0,77,0.00,,---,0.59,VWS V14.00,2013-06-02 03:51:00,
2013-06-01 22:57:00,67.4,59.6,29.09,SSW,207,0.0,0.0,76,0.00,,---,0.59,VWS V14.00,2013-06-02 03:57:00,
2013-06-01 23:00:00,67.3,59.5,29.09,SW,235,0.0,0.0,76,0.00,,---,0.59,VWS V14.00,2013-06-02 04:00:00,
2013-06-01 23:03:00,67.3,59.5,29.09,SSW,206,0.0,0.0,76,0.00,,---,0.59,VWS V14.00,2013-06-02 04:03:00,
2013-06-01 23:06:00,67.1,59.3,29.09,SSW,206,0.0,0.0,76,0.00,,---,0.59,VWS V14.00,2013-06-02 04:06:00,
2013-06-01 23:12:00,66.9,59.5,29.12,SSW,193,0.0,0.0,77,0.00,,---,0.59,VWS V14.00,2013-06-02 04:12:00,
2013-06-01 23:15:00,66.7,59.3,29.12,SSW,194,0.0,0.0,77,0.00,,---,0.59,VWS V14.00,2013-06-02 04:15:00,
2013-06-01 23:18:00,66.7,59.3,29.12,SSW,195,0.0,0.0,77,0.00,,---,0.59,VWS V14.00,2013-06-02 04:18:00,
2013-06-01 23:21:00,66.5,59.1,29.12,SSW,195,0.0,0.0,77,0.00,,---,0.59,VWS V14.00,2013-06-02 04:21:00,
2013-06-01 23:24:00,66.4,58.9,29.12,SSW,195,0.0,0.0,77,0.00,,---,0.59,VWS V14.00,2013-06-02 04:24:00,
2013-06-01 23:27:00,66.4,59.3,29.12,SSW,195,0.0,0.0,78,0.00,,---,0.59,VWS V14.00,2013-06-02 04:27:00,
2013-06-01 23:30:00,66.2,59.1,29.12,SSW,195,0.0,0.0,78,0.00,,---,0.59,VWS V14.00,2013-06-02 04:30:00,
2013-06-01 23:33:00,66.2,59.1,29.12,SSW,195,0.0,0.0,78,0.00,,---,0.59,VWS V14.00,2013-06-02 04:33:00,
2013-06-01 23:36:00,66.2,59.1,29.12,SSW,195,0.0,0.0,78,0.00,,---,0.59,VWS V14.00,2013-06-02 04:36:00,
2013-06-01 23:39:00,66.0,59.3,29.12,SSW,195,0.0,0.0,79,0.00,,---,0.59,VWS V14.00,2013-06-02 04:39:00,
2013-06-01 23:42:00,66.0,59.3,29.12,SSW,195,0.0,0.0,79,0.00,,---,0.59,VWS V14.00,2013-06-02 04:42:00,
2013-06-01 23:45:00,65.8,59.1,29.12,SSW,195,0.0,0.0,79,0.00,,---,0.59,VWS V14.00,2013-06-02 04:45:00,
2013-06-01 23:48:00,65.8,59.1,29.12,SSW,195,0.0,0.0,79,0.00,,---,0.59,VWS V14.00,2013-06-02 04:48:00,
2013-06-01 23:51:00,65.6,59.0,29.12,SSW,195,0.0,0.0,79,0.00,,---,0.59,VWS V14.00,2013-06-02 04:51:00,
2013-06-01 23:54:00,65.5,58.8,29.12,SSW,195,0.0,0.0,79,0.00,,---,0.59,VWS V14.00,2013-06-02 04:54:00,
2013-06-01 23:57:00,65.3,59.0,29.12,SSW,195,0.0,0.0,80,0.00,,---,0.59,VWS V14.00,2013-06-02 04:57:00,